微厘空间一号 S4星 (CENTISPACE-1 S5)

导读

CENTISPACE-1 S5是中国于2022年10月7日发射的微厘空间一号系列商业小卫星,隶属于微厘空间低轨卫星导航增强星座,该星座旨在对北斗等全球卫星导航系统进行性能增强。卫星由北京未来导航主导,依托中国科学院微卫星平台研制,运行于近地太阳同步轨道,承载星间激光链路等导航增强技术试验任务,助力我国低轨导航增强网络的组网验证与技术迭代,目前在轨开展相关测试与应用示范工作。

Basic Information
目录编号:
54020
目录名称:
CENTISPACE-1 S5
国际标识:
2022-126A
轨道中心:
EARTH
卫星名称:
微厘空间一号 S4星
卫星全名:
微厘空间一号 S4星 (CENTISPACE-1 S5)
卫星状态:
在轨 (已飞行1376 天)
发射日期:
2022-10-07 UTC
国别 :
中国 (CN)
星等 :
--
Orbit Information
数据来源 国际轨道数据 AOE轨道数据
星历时间 2026-07-14T12:58:48+0800
4小时前
查看轨道信息
2026-07-09T01:00:00+0800
5天前
查看轨道信息
半长轴 7061.462km 7061.455km
偏心率 0.0014426 0.0014525
轨道倾角 54.999° 54.998°
近地点辐角 122.575° 112.652°
升交点赤经 104.829° 126.836°
平近点角 237.664° 71.231°
近地点 673.138km 673.061km
远地点 693.512km 693.575km
周期 98.424分钟 98.424分钟
每日圈数 14.630556 14.630578
Detailed Information
平衡模式:
三轴稳定
覆盖范围:
全球
运营商:
哈尔滨工业大学
运营商所在国:
中国
制造商(研发单位):
中国科学院
制造商所在国:
中国
使用方式:
暂无
Satellite Introduction
“微厘空间”卫星星座(CentiSpace Constellation)也称“微厘空间”低轨卫星导航增强系统,是由160颗低轨卫星及地面系统构成的天地一体化星座系统,对中国北斗等卫星导航系统进行性能增强该卫星仍在工作。
2D Orbit Map
3D Orbit Map
Orbit Altitude Analysis Chart
Orbit Inclination Analysis Chart
Orbit Comprehensive Analysis Chart
View Comprehensive Chart